Broome, Australia

4:54 AM AWST on October 24, 2017 (GMT +0800)
Broome International

Weather History for YBRM - October, 2017

Change the Weather History Date:

Friday, October 13, 2017

  Actual Average Record
Temperature  
Mean Temperature 87 °F -  
Max Temperature 97 °F 91 °F - ()
Min Temperature 77 °F 74 °F - ()
Cooling Degree Days 22    
Growing Degree Days 37 (Base 50)    
Moisture  
Dew Point 74 °F    
Average Humidity 71    
Maximum Humidity 89    
Minimum Humidity 38    
Precipitation  
Precipitation 0.00 in 0.01 in - ()
Sea Level Pressure  
Sea Level Pressure 29.81 in    
Wind  
Wind Speed 8 mph ()    
Max Wind Speed 17 mph    
Max Gust Speed -    
Visibility 6.2 miles    
Events Rain    
T = Trace of Precipitation, MM = Missing Value Source: Averaged Metar Reports

Daily Weather History Graph

Daily Weather History Graph

Search for Another Location

Airport or City:

Trip Planner

Search our weather history database for the weather conditions in past years. The results will help you decide how hot, cold, wet, or windy it might be!

Date:

Astronomy

Oct. 13, 2017 Rise Set
Actual Time 5:23 AM AWST 5:51 PM AWST
Civil Twilight 5:01 AM AWST 6:13 PM AWST
Nautical Twilight 4:36 AM AWST 6:38 PM AWST
Astronomical Twilight 4:10 AM AWST 7:04 PM AWST
Moon 12:23 AM AWST (10/13) 11:57 AM AWST (10/13)
Length of Visible Light 13h 11m
Length of Day
12h 27m
Last Quarter, 43% of the Moon is Illuminated
Oct 13
Last Quarter
Oct 20
New
Oct 28
First Quarter
Nov 4
Full
Nov 11
Last Quarter

Hourly Weather History & Observations

Time (AWST) Temp. Heat Index Dew Point Humidity Pressure Visibility Wind Dir Wind Speed Gust Speed Precip Events Conditions
12:00 AM 80 °F - 71 °F 67% 29.83 in - ENE 8.1 mph - -   Clear
12:00 AM 80.6 °F 84.6 °F 71.6 °F 74% 29.83 in 6.2 mi ENE 8.1 mph - N/A   Scattered Clouds
12:30 AM 80.6 °F 84.6 °F 71.6 °F 74% 29.83 in 6.2 mi NE 8.1 mph - N/A   Scattered Clouds
1:00 AM 80.6 °F 84.6 °F 71.6 °F 74% 29.83 in 6.2 mi ENE 9.2 mph - N/A   Mostly Cloudy
1:30 AM 80.6 °F 84.6 °F 71.6 °F 74% 29.83 in 6.2 mi East 5.8 mph - N/A   Mostly Cloudy
2:00 AM 80 °F - 72 °F 70% 29.83 in - East 4.6 mph - -  
2:00 AM 78.8 °F - 71.6 °F 78% 29.83 in 6.2 mi East 4.6 mph - N/A   Overcast
2:30 AM 80.6 °F 84.6 °F 71.6 °F 74% 29.83 in 6.2 mi SSW 6.9 mph - N/A   Overcast
3:00 AM 80 °F - 73 °F 73% 29.84 in - South 6.9 mph - -   Clear
3:00 AM 80.6 °F 85.4 °F 73.4 °F 79% 29.83 in 6.2 mi South 6.9 mph - N/A   Overcast
3:30 AM 80.6 °F 84.6 °F 71.6 °F 74% 29.83 in 6.2 mi SE 8.1 mph - N/A   Mostly Cloudy
4:00 AM 78.8 °F - 73.4 °F 83% 29.83 in 6.2 mi ESE 6.9 mph - N/A Rain Rain
4:30 AM 77.0 °F - 71.6 °F 83% 29.80 in 6.2 mi ENE 13.8 mph - N/A Rain Light Rain
5:00 AM 77 °F - 72 °F 81% 29.84 in - WSW 3.5 mph - -  
5:00 AM 77.0 °F - 71.6 °F 83% 29.83 in 6.2 mi WSW 3.5 mph - N/A Rain Light Rain Showers
5:30 AM 77.0 °F - 73.4 °F 89% 29.83 in 6.2 mi SSW 6.9 mph - N/A Rain Light Rain Showers
6:00 AM 79 °F - 73 °F 76% 29.86 in - South 4.6 mph - - Rain Rain
6:00 AM 78.8 °F - 73.4 °F 83% 29.86 in 6.2 mi South 4.6 mph - N/A   Unknown
6:30 AM 78.8 °F - 73.4 °F 83% 29.86 in 6.2 mi ESE 5.8 mph - N/A   Overcast
7:00 AM 78.8 °F - 75.2 °F 89% 29.86 in 6.2 mi East 4.6 mph - N/A Rain Light Rain Showers
7:30 AM 80.6 °F 86.2 °F 75.2 °F 84% 29.89 in 6.2 mi ENE 6.9 mph - N/A   Scattered Clouds
8:00 AM 82.4 °F 89.5 °F 75.2 °F 79% 29.86 in 6.2 mi ENE 6.9 mph - N/A   Unknown
8:30 AM 84.2 °F 92.3 °F 75.2 °F 74% 29.86 in - ENE 6.9 mph - N/A   Clear
9:00 AM 88 °F - 74 °F 55% 29.88 in - East 11.5 mph - -   Clear
9:00 AM 87.8 °F 95.6 °F 73.4 °F 62% 29.86 in 6.2 mi East 11.5 mph - N/A   Scattered Clouds
9:30 AM 89.6 °F 98.2 °F 73.4 °F 59% 29.86 in 6.2 mi East 10.4 mph - N/A   Scattered Clouds
10:00 AM 91.4 °F 98.4 °F 71.6 °F 52% 29.86 in - East 9.2 mph - N/A   Clear
10:30 AM 93.2 °F 100.5 °F 71.6 °F 49% 29.83 in - East 8.1 mph - N/A   Clear
11:00 AM 94 °F - 74 °F 43% 29.83 in - SE 6.9 mph - -  
11:00 AM 95.0 °F 104.5 °F 73.4 °F 49% 29.83 in - SE 6.9 mph - N/A   Clear
11:30 AM 95.0 °F 101.3 °F 69.8 °F 44% 29.80 in - South 5.8 mph - N/A   Clear
12:00 PM 96 °F - 73 °F 38% 29.80 in - WSW 8.1 mph - -   Clear
12:00 PM 96.8 °F 107.3 °F 73.4 °F 47% 29.80 in 6.2 mi WSW 8.1 mph - N/A   Unknown
12:30 PM 91.4 °F 100.1 °F 73.4 °F 55% 29.77 in - West 11.5 mph - N/A   Clear
1:00 PM 91.4 °F 100.1 °F 73.4 °F 55% 29.77 in 6.2 mi West 12.7 mph - N/A   Scattered Clouds
1:30 PM 93.2 °F 100.5 °F 71.6 °F 49% 29.77 in 6.2 mi West 12.7 mph - N/A   Scattered Clouds
2:00 PM 90 °F - 75 °F 53% 29.76 in - West 17.3 mph - -  
2:00 PM 89.6 °F 99.8 °F 75.2 °F 62% 29.74 in 6.2 mi West 17.3 mph - N/A   Partly Cloudy
2:30 PM 89.6 °F 99.8 °F 75.2 °F 62% 29.74 in 6.2 mi West 15.0 mph - N/A   Unknown
3:00 PM 89.6 °F 98.2 °F 73.4 °F 59% 29.74 in 6.2 mi West 17.3 mph - N/A   Partly Cloudy
3:30 PM 87.8 °F 97.6 °F 75.2 °F 66% 29.74 in 6.2 mi West 17.3 mph - N/A   Partly Cloudy
4:00 PM 87.8 °F 97.6 °F 75.2 °F 66% 29.74 in 6.2 mi West 16.1 mph - N/A   Unknown
4:30 PM 87.8 °F 97.6 °F 75.2 °F 66% 29.74 in 6.2 mi West 16.1 mph - N/A   Unknown
5:00 PM 86 °F - 74 °F 61% 29.74 in - West 15.0 mph - -  
5:00 PM 86.0 °F 95.1 °F 75.2 °F 70% 29.74 in 6.2 mi West 15.0 mph - N/A   Unknown
5:30 PM 84.2 °F 92.3 °F 75.2 °F 74% 29.74 in 6.2 mi WSW 13.8 mph - N/A   Unknown
6:00 PM 84 °F - 75 °F 67% 29.77 in - WSW 12.7 mph - -   Clear
6:00 PM 84.2 °F 92.3 °F 75.2 °F 74% 29.77 in 6.2 mi WSW 12.7 mph - N/A   Unknown
6:30 PM 84.2 °F 92.3 °F 75.2 °F 74% 29.77 in 6.2 mi WSW 9.2 mph - N/A   Unknown
7:00 PM 82.4 °F 89.5 °F 75.2 °F 79% 29.80 in 6.2 mi WNW 8.1 mph - N/A   Unknown
7:30 PM 82.4 °F 89.5 °F 75.2 °F 79% 29.80 in 6.2 mi WNW 8.1 mph - N/A   Unknown
8:00 PM 82 °F - 76 °F 77% 29.82 in - WNW 6.9 mph - -  
8:00 PM 82.4 °F 89.5 °F 75.2 °F 79% 29.80 in 6.2 mi WNW 6.9 mph - N/A   Unknown
8:30 PM 82.4 °F 90.9 °F 77.0 °F 84% 29.83 in 6.2 mi West 5.8 mph - N/A   Unknown
9:00 PM 82 °F - 76 °F 78% 29.84 in - NW 2.3 mph - -   Clear
9:00 PM 82.4 °F 90.9 °F 77.0 °F 84% 29.83 in 6.2 mi NW 2.3 mph - N/A   Unknown
9:30 PM 80.6 °F 87.1 °F 77.0 °F 89% 29.83 in 6.2 mi WNW 3.5 mph - N/A   Unknown
10:00 PM 82.4 °F 90.9 °F 77.0 °F 84% 29.83 in 6.2 mi West 4.6 mph - N/A   Unknown
11:00 PM 81 °F - 77 °F 83% 29.83 in - West 5.8 mph - -  
11:00 PM 80.6 °F 87.1 °F 77.0 °F 89% 29.83 in 6.2 mi West 5.8 mph - N/A   Unknown
11:30 PM 80.6 °F 87.1 °F 77.0 °F 89% 29.83 in 6.2 mi WSW 6.9 mph - N/A   Unknown